Regional Weather Roundup
Issued by NWS

Home | Current Version | Previous Version | Text Only | Print | Product List | Glossary On
Versions: 1 2 3 4 5 6 7 8 9 10 11 12 13 14 15 16 17 18 19 20 21 22 23 24 25 26 27 28 29 30 31 32 33 34 35 36 37 38 39 40 41 42 43 44 45 46 47 48 49 50
000
ASUS43 KMKX 232221
RWRWI

WISCONSIN REGIONAL WEATHER ROUNDUP
NATIONAL WEATHER SERVICE MILWAUKEE/SULLIVAN WI
500 PM CDT WED APR 23 2014

NOTE: "FAIR" INDICATES FEW OR NO CLOUDS BELOW 12,000 FEET WITH NO
SIGNIFICANT WEATHER AND/OR OBSTRUCTIONS TO VISIBILITY.

WIZ001-002-006>008-014>016-023>028-232300-
NORTHWEST WISCONSIN

CITY           SKY/WX    TMP DP  RH WIND       PRES   REMARKS
SUPERIOR ARPT  CLOUDY    37  30  74 NE7       30.04F WCI  32
ASHLAND        CLOUDY    45  27  49 NE14      30.06F
HAYWARD        CLOUDY    52  25  35 S9        30.03F
SIREN          CLOUDY    51  22  32 SE12      30.01F
RICE LAKE      CLOUDY    50  23  34 E10       30.04F
LADYSMITH      CLOUDY    51  24  35 SE8       30.07F
EAU CLAIRE     CLOUDY    53  23  31 SE14      30.03F
MENOMONIE      DRIZZLE   49  31  50 SE15G22   30.04S
NEW RICHMOND   DRIZZLE   40  36  83 S10       30.02F WCI  34
OSCEOLA        LGT RAIN  42  37  80 S10       30.05F
$$

WIZ003>005-009-010-017-018-232300-
NORTH CENTRAL WISCONSIN

CITY           SKY/WX    TMP DP  RH WIND       PRES   REMARKS
WOODRUFF       PTSUNNY   57  19  22 SE7       30.05F
RHINELANDER    PTSUNNY   53  22  29 SE8       30.06F
EAGLE RIVER    MOSUNNY   52  13  21 S3        30.06S
LAND O LAKES   MOSUNNY   53  15  22 SE3       30.06F
PHILLIPS       CLOUDY    52  24  34 S12       30.05S
TOMAHAWK       CLOUDY    52  23  32 SE8       30.07S
MEDFORD        CLOUDY    48  26  43 SE9       30.07F
MERRILL        CLOUDY    52  24  33 SW7       30.08S
$$

WIZ029-030-035-036-043>047-232300-
CENTRAL WISCONSIN

CITY           SKY/WX    TMP DP  RH WIND       PRES   REMARKS
WAUSAU         CLOUDY    50  22  33 S12       30.07F
MOSINEE        SUNNY     48  23  37 S10       30.10F
MARSHFIELD     CLOUDY    51  23  33 SE12      30.06F
STEVENS POINT  CLOUDY    47  22  35 S7        30.10F
WAUPACA        CLOUDY    52  21  30 SE7       30.12S
WAUTOMA        CLOUDY    52  25  35 NE8       30.10F
WISC RAPIDS    CLOUDY    52  21  29 E10       30.09F
CAMP DOUGLAS   CLOUDY    55  25  30 S10       30.06F
$$

WIZ011>013-019>022-031-037>040-048>050-232300-
NORTHEAST WISCONSIN

CITY           SKY/WX    TMP DP  RH WIND       PRES   REMARKS
ANTIGO         PTSUNNY   50  22  33 S12       30.09S
STURGEON BAY   CLOUDY    45  10  24 SE8       30.15F
GREEN BAY      PTSUNNY   49  24  37 NE9       30.14S
MANITOWOC      CLOUDY    45  11  25 VRB7      30.15S
APPLETON       PTSUNNY  N/A N/A N/A SE7       30.12F
CLINTONVILLE   CLOUDY    50  14  23 SE5       30.12F
OSHKOSH        CLOUDY    50  26  39 NE6       30.11F
$$

WIZ032>034-041-042-053>061-232300-
SOUTHWEST WISCONSIN

CITY           SKY/WX    TMP DP  RH WIND       PRES   REMARKS
LA CROSSE      CLOUDY    46  36  68 E15       30.03F
SPARTA         RAIN      45  36  71 S12       30.09R
VIROQUA        MOCLDY    49  27  42 E12       30.03F
BOSCOBEL       CLOUDY    55  26  32 E9        30.05F
PRAIRIE DU CHI CLOUDY    53  28  39 E12       30.04F
PLATTEVILLE    FAIR      53  26  35 SE13      30.06F
$$

WIZ056-057-062-063-064-067-068-232300-
SOUTH CENTRAL WISCONSIN

CITY           SKY/WX    TMP DP  RH WIND       PRES   REMARKS
BARABOO/DELLS  CLOUDY    52  25  35 S12       30.07F
LONE ROCK      CLOUDY    53  25  33 SE7       30.08F
WATERTOWN      CLOUDY    52  23  33 SE8       30.11S
MADISON        CLOUDY    54  25  32 SE12      30.09F
MIDDLETON      CLOUDY    54  25  31 E10       30.08F
MONROE         CLOUDY    53  26  35 SE8       30.08F
JANESVILLE     CLOUDY    54  23  30 SE9       30.10S
$$

WIZ051-052-058>065-066-070>072-232300-
SOUTHEAST WISCONSIN

CITY           SKY/WX    TMP DP  RH WIND       PRES   REMARKS
MILWAUKEE      CLOUDY    42  23  46 NE7       30.16S
WAUKESHA       PTSUNNY   45  19  36 E9        30.14S
MILWAUKEE/TIMM SUNNY     45  18  33 E5        30.15F
RACINE         PTSUNNY   44  23  43 NE8       30.15F
BURLINGTON     PTSUNNY   47  23  37 E7        30.13R
KENOSHA        PTSUNNY   44  22  41 E9        30.14S
FOND DU LAC    CLOUDY    51  26  37 NE10      30.11F
SHEBOYGAN      PTSUNNY   44  14  29 NE10      30.15F
WEST BEND      CLOUDY    45  19  36 E7        30.13F
JUNEAU         CLOUDY    51  16  24 E9        30.12S
$$

LSZ147-162-232300-
LAKE SUPERIOR

STATION/POSITION TIME  TEMP    WIND        PRES    WAVE
                       AIR SEA DIR/SP/G            HT/PER
                 (UTC) (F)     (DEG/KT/KT) (MB)    (FT/S)
DEVILS ISLAND    2200   36      70/ 10/ 11 1019.3F
PORT WING        2100   35      30/ 16/ 19 1017.6F
SAXON HARBOR     2100          350/  2/  3 1018.6F
$$

LMZ867-665-643>646-232300-
LAKE MICHIGAN

STATION/POSITION TIME  TEMP    WIND        PRES    WAVE
                       AIR SEA DIR/SP/G            HT/PER
                 (UTC) (F)     (DEG/KT/KT) (MB)    (FT/S)
NORTHPORT PIER   2100   41     150/  8/ 10 1021.0F
KEWAUNEE LAKESHO 2100   38      60/  4/  6 1022.1F
SHEBOYGAN LAKESH 2200   38      30/  4/  5 1021.9F
PORT WASHINGTON  2100   38      80/  3/  4 1022.0
MILWAUKEE LAKESH 2200   37      60/  4/  5   N/A
KENOSHA   LAKESH 2200   38      30/  8/  9   N/A
$$

TC  - TEMPERATURE IN CELSIUS
VSB - VISIBILITY IN STATUTE MILES
WCI - WIND CHILL INDEX
HX  - HEAT INDEX




USA.gov is the U.S. government's official web portal to all federal, state and local government web resources and services.